Tracking 19709 objects as of 17-Jun-2019
HD Live streaming from Space Station
objects crossing your sky now

DELTA 1 DEB

Track DELTA 1 DEB now!
10-day predictions


NORAD ID: 7200
Int'l Code: 1973-086FJ
Perigee: 1,445.1 km
Apogee: 1,919.1 km
Inclination: 102.5 °
Period: 119.9 minutes
Semi major axis: 8053 km
RCS: 0.0922 m2 (small)
Launch date: November 6, 1973
Source: United States (US)
Launch site: AIR FORCE WESTERN TEST RANGE (AFWTR)

Note: This is SATELLITE DEBRIS
aabbcc
Your satellite tracking list
Your tracking list is empty




NASA's NSSDC Master Catalog

Two Line Element Set (TLE):
1  7200U 73086FJ  19167.16120844 -.00000217  00000-0 -18739-2 0  9995
2  7200 102.5009 245.7217 0294297  13.5136  54.8646 12.01314445995425
Source of the keplerian elements: AFSPC